Погода в Пионере

Россия / Пензенская область     53°02′15″N   46°36′24″E
темп.,
°C
ветер,
м/с
пор.,
м/с
влажн.,
%
обл.,
%
осадки,
мм/ч
давл.,
гПа
погр.,
м
17 мая, вт
вт1700:00+7з499460 0.2 1004401
03:00+5з499710 0.2 1005253
06:00+6з49929 0.0 1004396
09:00+9з687467 0.6 10041202
12:00+11з6765100 2.1 10031723
15:00+11з5760100 3.3 10021748
18:00+9з367510 1.1 1002666
21:00+5зюз489331 1.4 1003259
18 мая, ср
ср1800:00+5зюз1193100 0.1 100294
03:00+5зсз249494 0.1 1002177
06:00+6зсз249199 0.0 1004306
09:00+10зсз446972 0.1 10041124
12:00+11зсз4558100 0.1 10051501
15:00+11сз4663100 0.1 10071389
18:00+9сз3786100 0.1 1009410
21:00+8сз3788100 0.1 1010415
19 мая, чт
чт1900:00+7зсз258998 0.0 1011246
03:00+4зсз3996100 0.0 1012289
06:00+6з3989100 0.0 1012451
09:00+9зсз685765 0.1 10131518
12:00+11з6849100 0.0 10131838
15:00+12з7115997 0.1 10121708
18:00+7зсз41192100 4.6 1012727
21:00+5зсз399728 4.8 1014276
20 мая, пт
пт2000:00+3сз36977 0.0 1014133
03:00+1зсз23930 0.0 101452
06:00+4з368510 0.0 1014227
09:00+6сз588862 0.6 1014769
12:00+8сз686596 0.3 10141316
15:00+9сз685683 0.9 10141607
18:00+8ссз58595 0.3 10151408
21:00+3ссз36805 0.3 1016120
21 мая, сб
сб2100:00+1сз24915 0.0 101672
03:000сз22931 0.0 101628
06:00+4сз24763 0.0 1015201
09:00+9сз33565 0.0 10141174
12:00+12ссз1142100 0.1 10122114
15:00+11всв0044100 0.1 10111640
18:00+9в3666100 0.3 1009267
21:00+6всв2680100 0.4 1009226